디시인사이드 갤러리

리듬게임 갤러리

갤러리 이슈박스, 최근방문 갤러리

갤러리 본문 영역

벨플레겐 13와리가리만 보면 손이 굳는다앱에서 작성

고간갤로그로 이동합니다. 2020.07.03 19:12:43
조회 20 추천 0 댓글 1

추천 비추천

0

고정닉 0

0

댓글 영역

전체 리플 0
등록순정렬 기준선택

하단 갤러리 리스트 영역

왼쪽 컨텐츠 영역

갤러리 리스트 영역

갤러리 리스트
번호 제목 글쓴이 작성일 조회 추천
이슈 월간디시 8월호 : 반갑다 논란아 운영자 20/07/31 - -
뉴스 전설적 DJ 아비치 음악 게임 '아비치 인벡터' 정식 출시 [3] 게임메카갤로그로 이동합니다. 20.08.03 62 0
공지 리듬게임에 관련된 사진과 내용을 올려주시기 바랍니다. [745] 운영자 06.08.29 10673520 207
11139302 만잘알의 최근 북마크내역 보실분 [3] ㅂㄹㅅㅌ(223.38) 12:18 9 0
11139301 손아파서 좀 쉬었더니 ㄱㅊ하네 [1] 5123874갤로그로 이동합니다. 12:17 6 0
11139300 옛날부터 그렇게 노래를 불렀는데 진짜로 나와 [3] 빅사실맨갤로그로 이동합니다. 12:15 33 0
11139299 겜 너무많이해서 왼손중지 부었네 [3] Zzz...갤로그로 이동합니다. 12:13 28 0
11139298 코나스테부흥운동임? [3] 리츠코의새우갤로그로 이동합니다. 12:12 29 0
11139297 리갤러들은안좋은거-40 [6] 츠다냥갤로그로 이동합니다. 12:12 41 0
11139296 갈까요? [2] 5123874갤로그로 이동합니다. 12:08 22 0
11139295 나는 이카레겐 70대로 틀리는 고수 [3] 5123874갤로그로 이동합니다. 12:06 40 0
11139294 엑박360용 기타 인식 된다 [1] kinetic갤로그로 이동합니다. 12:06 30 0
11139293 별별1 죽고 따우콩 으깨버리는짤 [1] ㅁㅁ갤로그로 이동합니다. 12:05 26 0
11139292 뉴비 첫풀콤 뽑았어요 [1] Stinct갤로그로 이동합니다. 11:58 27 0
11139291 시위할듯 [5] Flatorte갤로그로 이동합니다. 11:57 65 0
11139290 이거 노래 진짜 개좋네 [2] ㅂㄹㅅㅌ(223.38) 11:56 48 0
11139289 따스 대규모 업뎃이 기대되네요 [1] yen(175.223) 11:55 34 0
11139288 명카이덴카마이타치만 깨면 진짜 클딸 그만할텐데 [2] jeonsee갤로그로 이동합니다. 11:54 34 0
11139287 발광bms고수님들아 질문좀요 [3] 한혜림갤로그로 이동합니다. 11:50 47 0
11139286 눈썹 위에가 부르르 떨리는게 뭐가 부족해서라든데 [8] 디케이드갤로그로 이동합니다. 11:49 66 0
11139285 야 ㅅㅂ뭐야 기타도라 홈캐나옴??? [5] 빅사실맨갤로그로 이동합니다. 11:49 67 0
11139284 오네챠 감상후기 [2] ㅂㄹㅅㅌ(223.38) 11:49 42 0
11139283 뭐야 기타도라 어디 들어감?? [1] 빅사실맨갤로그로 이동합니다. 11:48 26 0
11139282 Mr.T 요새 유튜브하네 ㅋㅋㅋ [2] 감자갤로그로 이동합니다. 11:48 48 0
11139281 구난이도였으면 그냥대충12.4 때려박고끝인데 JHS⭐갤로그로 이동합니다. 11:47 26 0
11139280 밀리시타 시작했어요 [4] 나기사갤로그로 이동합니다. 11:46 32 0
11139279 종합비타민 돈주고 사먹을만한가 [2] Zzz...갤로그로 이동합니다. 11:46 34 0
11139278 새로운마음으로 븜스 계정 갈고 새로 해야지 츠다냥갤로그로 이동합니다. 11:45 20 0
11139277 킬링머신 12.5갔네 [3] 말걸리기장인갤로그로 이동합니다. 11:43 45 0
11139276 자전거타고싶은데 Flexin(210.91) 11:43 16 0
11139275 발바닥 터질거 같다. ㅎㄴ(121.135) 11:41 12 0
11139274 기타도라 따오콘 lr2모드 인식함 [3] yen(175.223) 11:40 51 0
11139273 [DDR 5th mix]디디알 핍쓰 극한의 틀기 충. ㅎㄴ(121.135) 11:38 17 0
11139272 트라*이드 다 12.6 상위로 보네 [6] Zzz...갤로그로 이동합니다. 11:33 67 0
11139271 따오측에서 기타콘 만든다는게 4월인데 도대체 어떻게 알았던거지 [1] kinetic갤로그로 이동합니다. 11:33 45 0
11139270 진짜 ㅅㅂ 인생에 도움이안되는련들 5123874갤로그로 이동합니다. 11:32 28 0
11139269 기타박힘콘 삽니다 니엔테갤로그로 이동합니다. 11:28 30 0
11139268 이거 키설정에 레프트심벌이랑 라이트 심벌 반대임.. yen(175.223) 11:28 30 0
11139267 기타히어로 이거 될까 [6] kinetic갤로그로 이동합니다. 11:28 74 0
11139266 저거 만약 정식서비스되면 기타가 좀더 흥하겠네 [4] MELT갤로그로 이동합니다. 11:26 85 0
11139265 튜툐에 한글있네 [2] ㅇㅇ(211.210) 11:24 50 0
11139264 이렇게되면 피씨도라는 오지야 카챠카 이런게 날먹곡 되는거아닌가 BUILDWATER갤로그로 이동합니다. 11:22 35 0
11139263 국내 미리미리 홈케 준비하라구~ ㅇㅇ(223.38) 11:22 36 0
11139262 갑자기 코나스테 개발열심히하는데 Flexin(210.91) 11:22 34 0
11139261 뭔데 왜 기타드럼은 HTML5 아니고 윈도우인데. [5] blurtic갤로그로 이동합니다. 11:22 119 2
11139260 이제 PC로 안나온 비마니 게임이 뭐 있나.. [1] 디케이드갤로그로 이동합니다. 11:21 40 0
11139259 키보드는 키 못바꾸나보네 [1] .민초갤로그로 이동합니다. 11:20 43 0
11139258 충북대더리듬 실제로 오픈함? [1] Bamtrollface갤로그로 이동합니다. 11:20 43 0
11139257 일어나서 카트만하다가왔는데 기타도라 뭐야 [2] Colors갤로그로 이동합니다. 11:19 47 0
11139256 호오... .민초갤로그로 이동합니다. 11:19 27 0
11139255 따스 돈되지 ㅇㅇ(223.38) 11:19 18 0
갤러리 내부 검색
전체게시물 정렬 옵션

오른쪽 컨텐츠 영역

이슈줌NEW

1/6

힛(HIT)NEW

그때 그 힛

1/3